contact:dominique.lefevre@mio.osupytheas.fr, maurice.libes@osupytheas.fr, didier.mallarino@osupytheas.fr
Project:EMSO http://www.emso-fr.org/EMSO-France
Depth: 2436.0 m
Title:EMSO Ligure Ouest : Data MII capteur MICROCAT
DateTime_Computer,Latitude,Longitude,Temperature,Conductivity,Pressure,DateTime_Instrument
DateTime_Computer,Latitude,Longitude,degC,S m-1,dbar,DateTime_Instrument
2021-09-19T00:00:08Z,42.805,6.029,13.2993,4.60016,2470.38,2021-9-19T02:01:30Z
2021-09-19T00:03:11Z,42.805,6.029,13.2994,4.60011,2470.366,2021-9-19T02:04:33Z
2021-09-19T00:06:15Z,42.805,6.029,13.2995,4.60010,2470.404,2021-9-19T02:07:36Z
2021-09-19T00:09:18Z,42.805,6.029,13.2992,4.60011,2470.38,2021-9-19T02:10:39Z
2021-09-19T00:12:21Z,42.805,6.029,13.2993,4.60014,2470.366,2021-9-19T02:13:42Z
2021-09-19T00:15:24Z,42.805,6.029,13.2993,4.60014,2470.39,2021-9-19T02:16:45Z
2021-09-19T00:18:27Z,42.805,6.029,13.2998,4.60017,2470.39,2021-9-19T02:19:48Z
2021-09-19T00:21:30Z,42.805,6.029,13.2993,4.60010,2470.357,2021-9-19T02:22:51Z
2021-09-19T00:24:33Z,42.805,6.029,13.2993,4.60011,2470.38,2021-9-19T02:25:55Z
2021-09-19T00:27:36Z,42.805,6.029,13.2997,4.60013,2470.32,2021-9-19T02:28:58Z
2021-09-19T00:30:40Z,42.805,6.029,13.2991,4.60017,2470.343,2021-9-19T02:32:01Z
2021-09-19T00:33:43Z,42.805,6.029,13.2990,4.60019,2470.343,2021-9-19T02:35:04Z
2021-09-19T00:36:46Z,42.805,6.029,13.2996,4.60017,2470.343,2021-9-19T02:38:07Z
2021-09-19T00:39:49Z,42.805,6.029,13.2993,4.60011,2470.38,2021-9-19T02:41:10Z
2021-09-19T00:42:52Z,42.805,6.029,13.2994,4.60011,2470.38,2021-9-19T02:44:13Z
2021-09-19T00:45:55Z,42.805,6.029,13.2990,4.60009,2470.343,2021-9-19T02:47:16Z
2021-09-19T00:48:58Z,42.805,6.029,13.2996,4.60016,2470.366,2021-9-19T02:50:20Z
2021-09-19T00:52:01Z,42.805,6.029,13.2994,4.60011,2470.33,2021-9-19T02:53:23Z
2021-09-19T00:55:04Z,42.805,6.029,13.2991,4.60009,2470.38,2021-9-19T02:56:26Z
2021-09-19T00:58:08Z,42.805,6.029,13.2994,4.60009,2470.357,2021-9-19T02:59:29Z
2021-09-19T01:01:11Z,42.805,6.029,13.2993,4.60014,2470.366,2021-9-19T03:02:32Z
2021-09-19T01:04:14Z,42.805,6.029,13.2991,4.60011,2470.343,2021-9-19T03:05:35Z
2021-09-19T01:07:17Z,42.805,6.029,13.2992,4.60014,2470.357,2021-9-19T03:08:38Z
2021-09-19T01:10:20Z,42.805,6.029,13.2994,4.60013,2470.357,2021-9-19T03:11:41Z
2021-09-19T01:13:23Z,42.805,6.029,13.2996,4.60011,2470.357,2021-9-19T03:14:45Z
2021-09-19T01:16:26Z,42.805,6.029,13.2995,4.60011,2470.343,2021-9-19T03:17:48Z
2021-09-19T01:19:29Z,42.805,6.029,13.2998,4.60010,2470.343,2021-9-19T03:20:51Z
2021-09-19T01:22:33Z,42.805,6.029,13.2991,4.60014,2470.343,2021-9-19T03:23:54Z
2021-09-19T01:25:36Z,42.805,6.029,13.2996,4.60015,2470.38,2021-9-19T03:26:57Z
2021-09-19T01:28:39Z,42.805,6.029,13.2996,4.60011,2470.366,2021-9-19T03:30:00Z
2021-09-19T01:31:42Z,42.805,6.029,13.2996,4.60014,2470.38,2021-9-19T03:33:03Z
2021-09-19T01:34:45Z,42.805,6.029,13.2993,4.60015,2470.357,2021-9-19T03:36:06Z
2021-09-19T01:37:48Z,42.805,6.029,13.2991,4.60009,2470.357,2021-9-19T03:39:09Z
2021-09-19T01:40:51Z,42.805,6.029,13.2996,4.60011,2470.38,2021-9-19T03:42:13Z
2021-09-19T01:43:54Z,42.805,6.029,13.2996,4.60013,2470.366,2021-9-19T03:45:16Z
2021-09-19T01:46:58Z,42.805,6.029,13.2991,4.60012,2470.366,2021-9-19T03:48:19Z
2021-09-19T01:50:01Z,42.805,6.029,13.2995,4.60014,2470.39,2021-9-19T03:51:22Z
2021-09-19T01:53:04Z,42.805,6.029,13.2994,4.60012,2470.343,2021-9-19T03:54:25Z
2021-09-19T01:56:07Z,42.805,6.029,13.3000,4.60014,2470.38,2021-9-19T03:57:28Z
2021-09-19T01:59:10Z,42.805,6.029,13.2990,4.60014,2470.38,2021-9-19T04:00:31Z
2021-09-19T02:02:13Z,42.805,6.029,13.2990,4.60009,2470.38,2021-9-19T04:03:34Z
2021-09-19T02:05:16Z,42.805,6.029,13.2993,4.60014,2470.366,2021-9-19T04:06:38Z
2021-09-19T02:08:19Z,42.805,6.029,13.2997,4.60019,2470.343,2021-9-19T04:09:41Z
2021-09-19T02:11:23Z,42.805,6.029,13.2992,4.60011,2470.39,2021-9-19T04:12:44Z
2021-09-19T02:14:26Z,42.805,6.029,13.2998,4.60014,2470.366,2021-9-19T04:15:47Z
2021-09-19T02:17:29Z,42.805,6.029,13.2993,4.60011,2470.343,2021-9-19T04:18:50Z
2021-09-19T02:20:32Z,42.805,6.029,13.2996,4.60011,2470.343,2021-9-19T04:21:53Z
2021-09-19T02:23:35Z,42.805,6.029,13.2993,4.60010,2470.366,2021-9-19T04:24:56Z
2021-09-19T02:26:38Z,42.805,6.029,13.2993,4.60012,2470.404,2021-9-19T04:27:59Z
2021-09-19T02:29:41Z,42.805,6.029,13.2993,4.60013,2470.357,2021-9-19T04:31:03Z
2021-09-19T02:32:44Z,42.805,6.029,13.3001,4.60014,2470.366,2021-9-19T04:34:06Z
2021-09-19T02:35:47Z,42.805,6.029,13.2996,4.60019,2470.404,2021-9-19T04:37:09Z
2021-09-19T02:38:51Z,42.805,6.029,13.2992,4.60025,2470.404,2021-9-19T04:40:12Z
2021-09-19T02:41:54Z,42.805,6.029,13.2993,4.60016,2470.38,2021-9-19T04:43:15Z
2021-09-19T02:44:57Z,42.805,6.029,13.2998,4.60018,2470.366,2021-9-19T04:46:18Z
2021-09-19T02:48:00Z,42.805,6.029,13.2996,4.60021,2470.366,2021-9-19T04:49:21Z
2021-09-19T02:51:03Z,42.805,6.029,13.2996,4.60011,2470.366,2021-9-19T04:52:24Z
2021-09-19T02:54:06Z,42.805,6.029,13.2997,4.60014,2470.427,2021-9-19T04:55:28Z
2021-09-19T02:57:09Z,42.805,6.029,13.2997,4.60011,2470.404,2021-9-19T04:58:31Z
2021-09-19T03:00:12Z,42.805,6.029,13.2994,4.60013,2470.39,2021-9-19T05:01:34Z
2021-09-19T03:03:16Z,42.805,6.029,13.2990,4.60016,2470.38,2021-9-19T05:04:37Z
2021-09-19T03:06:19Z,42.805,6.029,13.2991,4.60013,2470.39,2021-9-19T05:07:40Z
2021-09-19T03:09:22Z,42.805,6.029,13.2995,4.60020,2470.39,2021-9-19T05:10:43Z
2021-09-19T03:12:25Z,42.805,6.029,13.2995,4.60015,2470.427,2021-9-19T05:13:46Z
2021-09-19T03:15:28Z,42.805,6.029,13.2990,4.60013,2470.39,2021-9-19T05:16:49Z
2021-09-19T03:18:31Z,42.805,6.029,13.2993,4.60022,2470.427,2021-9-19T05:19:52Z
2021-09-19T03:21:34Z,42.805,6.029,13.2993,4.60014,2470.413,2021-9-19T05:22:56Z
2021-09-19T03:24:37Z,42.805,6.029,13.2993,4.60012,2470.404,2021-9-19T05:25:59Z
2021-09-19T03:27:41Z,42.805,6.029,13.2996,4.60016,2470.404,2021-9-19T05:29:02Z
2021-09-19T03:30:44Z,42.805,6.029,13.2994,4.60016,2470.45,2021-9-19T05:32:05Z
2021-09-19T03:33:47Z,42.805,6.029,13.2995,4.60021,2470.437,2021-9-19T05:35:08Z
2021-09-19T03:36:50Z,42.805,6.029,13.2993,4.60016,2470.45,2021-9-19T05:38:11Z
2021-09-19T03:39:53Z,42.805,6.029,13.2992,4.60014,2470.413,2021-9-19T05:41:14Z
2021-09-19T03:42:56Z,42.805,6.029,13.2996,4.60014,2470.427,2021-9-19T05:44:17Z
2021-09-19T03:45:59Z,42.805,6.029,13.2993,4.60013,2470.427,2021-9-19T05:47:21Z
2021-09-19T03:49:02Z,42.805,6.029,13.2993,4.60017,2470.427,2021-9-19T05:50:24Z
2021-09-19T03:52:06Z,42.805,6.029,13.2995,4.60014,2470.474,2021-9-19T05:53:27Z
2021-09-19T03:55:09Z,42.805,6.029,13.2993,4.60016,2470.45,2021-9-19T05:56:30Z
2021-09-19T03:58:12Z,42.805,6.029,13.2993,4.60014,2470.413,2021-9-19T05:59:33Z
2021-09-19T04:01:15Z,42.805,6.029,13.2993,4.60018,2470.474,2021-9-19T06:02:36Z
2021-09-19T04:04:18Z,42.805,6.029,13.2993,4.60012,2470.427,2021-9-19T06:05:39Z
2021-09-19T04:07:21Z,42.805,6.029,13.2995,4.60014,2470.483,2021-9-19T06:08:42Z
2021-09-19T04:10:24Z,42.805,6.029,13.2996,4.60021,2470.46,2021-9-19T06:11:46Z
2021-09-19T04:13:27Z,42.805,6.029,13.2999,4.60013,2470.45,2021-9-19T06:14:49Z
2021-09-19T04:16:30Z,42.805,6.029,13.2996,4.60015,2470.413,2021-9-19T06:17:52Z
2021-09-19T04:19:34Z,42.805,6.029,13.2992,4.60019,2470.45,2021-9-19T06:20:55Z
2021-09-19T04:22:37Z,42.805,6.029,13.2992,4.60016,2470.437,2021-9-19T06:23:58Z
2021-09-19T04:25:40Z,42.805,6.029,13.2998,4.60014,2470.45,2021-9-19T06:27:01Z
2021-09-19T04:28:43Z,42.805,6.029,13.2992,4.60013,2470.437,2021-9-19T06:30:04Z
2021-09-19T04:31:46Z,42.805,6.029,13.2996,4.60021,2470.474,2021-9-19T06:33:07Z
2021-09-19T04:34:49Z,42.805,6.029,13.2993,4.60014,2470.483,2021-9-19T06:36:10Z
2021-09-19T04:37:52Z,42.805,6.029,13.2993,4.60023,2470.507,2021-9-19T06:39:14Z
2021-09-19T04:40:55Z,42.805,6.029,13.2996,4.60015,2470.45,2021-9-19T06:42:17Z
2021-09-19T04:43:59Z,42.805,6.029,13.2993,4.60014,2470.437,2021-9-19T06:45:20Z
2021-09-19T04:47:02Z,42.805,6.029,13.2996,4.60022,2470.474,2021-9-19T06:48:23Z
2021-09-19T04:50:05Z,42.805,6.029,13.2993,4.60014,2470.483,2021-9-19T06:51:26Z
2021-09-19T04:53:08Z,42.805,6.029,13.2993,4.60018,2470.483,2021-9-19T06:54:29Z
2021-09-19T04:56:11Z,42.805,6.029,13.2993,4.60014,2470.45,2021-9-19T06:57:32Z
2021-09-19T04:59:14Z,42.805,6.029,13.2997,4.60013,2470.46,2021-9-19T07:00:35Z
2021-09-19T05:02:17Z,42.805,6.029,13.2996,4.60014,2470.483,2021-9-19T07:03:39Z
2021-09-19T05:05:20Z,42.805,6.029,13.2996,4.60016,2470.46,2021-9-19T07:06:42Z
2021-09-19T05:08:24Z,42.805,6.029,13.2997,4.60014,2470.483,2021-9-19T07:09:45Z
2021-09-19T05:11:27Z,42.805,6.029,13.2996,4.60022,2470.483,2021-9-19T07:12:48Z
2021-09-19T05:14:30Z,42.805,6.029,13.2998,4.60016,2470.474,2021-9-19T07:15:51Z
2021-09-19T05:17:33Z,42.805,6.029,13.2996,4.60027,2470.474,2021-9-19T07:18:54Z
2021-09-19T05:20:36Z,42.805,6.029,13.2994,4.60018,2470.46,2021-9-19T07:21:57Z
2021-09-19T05:23:39Z,42.805,6.029,13.2996,4.60014,2470.483,2021-9-19T07:25:00Z
2021-09-19T05:26:42Z,42.805,6.029,13.2996,4.60014,2470.46,2021-9-19T07:28:04Z
2021-09-19T05:29:45Z,42.805,6.029,13.2999,4.60014,2470.507,2021-9-19T07:31:07Z
2021-09-19T05:32:49Z,42.805,6.029,13.2994,4.60016,2470.497,2021-9-19T07:34:10Z
2021-09-19T05:35:52Z,42.805,6.029,13.2991,4.60014,2470.497,2021-9-19T07:37:13Z
2021-09-19T05:38:55Z,42.805,6.029,13.2993,4.60017,2470.497,2021-9-19T07:40:16Z
2021-09-19T05:41:58Z,42.805,6.029,13.2996,4.60019,2470.507,2021-9-19T07:43:19Z
2021-09-19T05:45:01Z,42.805,6.029,13.2995,4.60031,2470.52,2021-9-19T07:46:22Z
2021-09-19T05:48:04Z,42.805,6.029,13.2994,4.60014,2470.483,2021-9-19T07:49:25Z
2021-09-19T05:51:07Z,42.805,6.029,13.2996,4.60014,2470.483,2021-9-19T07:52:29Z
2021-09-19T05:54:10Z,42.805,6.029,13.2994,4.60014,2470.446,2021-9-19T07:55:32Z
2021-09-19T05:57:14Z,42.805,6.029,13.2997,4.60015,2470.497,2021-9-19T07:58:35Z
2021-09-19T06:00:17Z,42.805,6.029,13.2990,4.60012,2470.507,2021-9-19T08:01:38Z
2021-09-19T06:03:20Z,42.805,6.029,13.2998,4.60014,2470.483,2021-9-19T08:04:41Z
2021-09-19T06:06:23Z,42.805,6.029,13.2997,4.60017,2470.483,2021-9-19T08:07:44Z
2021-09-19T06:09:26Z,42.805,6.029,13.2996,4.60019,2470.511,2021-9-19T08:10:47Z
2021-09-19T06:12:29Z,42.805,6.029,13.2996,4.60016,2470.483,2021-9-19T08:13:50Z
2021-09-19T06:15:32Z,42.805,6.029,13.2993,4.60011,2470.483,2021-9-19T08:16:54Z
2021-09-19T06:18:35Z,42.805,6.029,13.2992,4.60016,2470.52,2021-9-19T08:19:57Z
2021-09-19T06:21:38Z,42.805,6.029,13.2992,4.60015,2470.497,2021-9-19T08:23:00Z
2021-09-19T06:24:42Z,42.805,6.029,13.2999,4.60025,2470.474,2021-9-19T08:26:03Z
2021-09-19T06:27:45Z,42.805,6.029,13.3003,4.60021,2470.483,2021-9-19T08:29:06Z
2021-09-19T06:30:48Z,42.805,6.029,13.2997,4.60016,2470.474,2021-9-19T08:32:09Z
2021-09-19T06:33:51Z,42.805,6.029,13.2995,4.60024,2470.483,2021-9-19T08:35:12Z
2021-09-19T06:36:54Z,42.805,6.029,13.2994,4.60014,2470.483,2021-9-19T08:38:15Z
2021-09-19T06:39:57Z,42.805,6.029,13.2999,4.60019,2470.45,2021-9-19T08:41:19Z
2021-09-19T06:43:00Z,42.805,6.029,13.2994,4.60016,2470.497,2021-9-19T08:44:22Z
2021-09-19T06:46:03Z,42.805,6.029,13.2994,4.60011,2470.497,2021-9-19T08:47:25Z
2021-09-19T06:49:07Z,42.805,6.029,13.2993,4.60014,2470.507,2021-9-19T08:50:28Z
2021-09-19T06:52:10Z,42.805,6.029,13.2993,4.60011,2470.483,2021-9-19T08:53:31Z
2021-09-19T06:55:13Z,42.805,6.029,13.2996,4.60029,2470.474,2021-9-19T08:56:34Z
2021-09-19T06:58:16Z,42.805,6.029,13.2996,4.60021,2470.474,2021-9-19T08:59:37Z
2021-09-19T07:01:19Z,42.805,6.029,13.2996,4.60016,2470.483,2021-9-19T09:02:40Z
2021-09-19T07:04:22Z,42.805,6.029,13.2995,4.60016,2470.46,2021-9-19T09:05:44Z
2021-09-19T07:07:25Z,42.805,6.029,13.2995,4.60017,2470.474,2021-9-19T09:08:47Z
2021-09-19T07:10:28Z,42.805,6.029,13.2990,4.60014,2470.483,2021-9-19T09:11:50Z
2021-09-19T07:13:32Z,42.805,6.029,13.2996,4.60011,2470.474,2021-9-19T09:14:53Z
2021-09-19T07:16:35Z,42.805,6.029,13.2996,4.60017,2470.474,2021-9-19T09:17:56Z
2021-09-19T07:19:38Z,42.805,6.029,13.2996,4.60014,2470.497,2021-9-19T09:20:59Z
2021-09-19T07:22:41Z,42.805,6.029,13.2993,4.60014,2470.52,2021-9-19T09:24:02Z
2021-09-19T07:25:44Z,42.805,6.029,13.2998,4.60015,2470.497,2021-9-19T09:27:05Z
2021-09-19T07:28:47Z,42.805,6.029,13.2994,4.60016,2470.474,2021-9-19T09:30:09Z
2021-09-19T07:31:50Z,42.805,6.029,13.2993,4.60018,2470.45,2021-9-19T09:33:12Z
2021-09-19T07:34:53Z,42.805,6.029,13.2995,4.60011,2470.474,2021-9-19T09:36:15Z
2021-09-19T07:37:57Z,42.805,6.029,13.2995,4.60016,2470.45,2021-9-19T09:39:18Z
2021-09-19T07:41:00Z,42.805,6.029,13.2996,4.60016,2470.474,2021-9-19T09:42:21Z
2021-09-19T07:44:03Z,42.805,6.029,13.2997,4.60014,2470.474,2021-9-19T09:45:24Z
2021-09-19T07:47:06Z,42.805,6.029,13.2990,4.60016,2470.474,2021-9-19T09:48:27Z
2021-09-19T07:50:09Z,42.805,6.029,13.2992,4.60014,2470.483,2021-9-19T09:51:30Z
2021-09-19T07:53:12Z,42.805,6.029,13.2992,4.60015,2470.46,2021-9-19T09:54:34Z
2021-09-19T07:56:15Z,42.805,6.029,13.2998,4.60016,2470.474,2021-9-19T09:57:37Z
2021-09-19T07:59:18Z,42.805,6.029,13.2996,4.60015,2470.437,2021-9-19T10:00:40Z
2021-09-19T08:02:22Z,42.805,6.029,13.2993,4.60014,2470.497,2021-9-19T10:03:43Z
2021-09-19T08:05:25Z,42.805,6.029,13.2995,4.60011,2470.437,2021-9-19T10:06:46Z
2021-09-19T08:08:28Z,42.805,6.029,13.2996,4.60010,2470.474,2021-9-19T10:09:49Z
2021-09-19T08:11:31Z,42.805,6.029,13.2998,4.60014,2470.46,2021-9-19T10:12:52Z
2021-09-19T08:14:34Z,42.805,6.029,13.2996,4.60016,2470.45,2021-9-19T10:15:55Z
2021-09-19T08:17:37Z,42.805,6.029,13.2996,4.60011,2470.46,2021-9-19T10:18:59Z
2021-09-19T08:20:40Z,42.805,6.029,13.2994,4.60014,2470.497,2021-9-19T10:22:02Z
2021-09-19T08:23:43Z,42.805,6.029,13.2996,4.60016,2470.46,2021-9-19T10:25:05Z
2021-09-19T08:26:47Z,42.805,6.029,13.2996,4.60017,2470.437,2021-9-19T10:28:08Z
2021-09-19T08:29:50Z,42.805,6.029,13.2999,4.60022,2470.45,2021-9-19T10:31:11Z
2021-09-19T08:32:53Z,42.805,6.029,13.2991,4.60016,2470.437,2021-9-19T10:34:14Z
2021-09-19T08:35:56Z,42.805,6.029,13.2998,4.60016,2470.437,2021-9-19T10:37:17Z
2021-09-19T08:38:59Z,42.805,6.029,13.2994,4.60012,2470.474,2021-9-19T10:40:20Z
2021-09-19T08:42:02Z,42.805,6.029,13.2998,4.60036,2470.474,2021-9-19T10:43:24Z
2021-09-19T08:45:05Z,42.805,6.029,13.2995,4.60020,2470.45,2021-9-19T10:46:27Z
2021-09-19T08:48:08Z,42.805,6.029,13.2996,4.60019,2470.437,2021-9-19T10:49:30Z
2021-09-19T08:51:12Z,42.805,6.029,13.2999,4.60014,2470.45,2021-9-19T10:52:33Z
2021-09-19T08:54:15Z,42.805,6.029,13.2992,4.60011,2470.413,2021-9-19T10:55:36Z
2021-09-19T08:57:18Z,42.805,6.029,13.2996,4.60016,2470.427,2021-9-19T10:58:39Z
2021-09-19T09:00:21Z,42.805,6.029,13.2995,4.60016,2470.437,2021-9-19T11:01:42Z
2021-09-19T09:03:24Z,42.805,6.029,13.2997,4.60014,2470.437,2021-9-19T11:04:45Z
2021-09-19T09:06:27Z,42.805,6.029,13.2993,4.60013,2470.413,2021-9-19T11:07:49Z
2021-09-19T09:09:30Z,42.805,6.029,13.3000,4.60014,2470.404,2021-9-19T11:10:52Z
2021-09-19T09:12:34Z,42.805,6.029,13.2998,4.60013,2470.413,2021-9-19T11:13:55Z
2021-09-19T09:15:37Z,42.805,6.029,13.3003,4.60026,2470.45,2021-9-19T11:16:58Z
2021-09-19T09:18:40Z,42.805,6.029,13.2999,4.60014,2470.427,2021-9-19T11:20:01Z
2021-09-19T09:21:43Z,42.805,6.029,13.2997,4.60015,2470.427,2021-9-19T11:23:04Z
2021-09-19T09:24:46Z,42.805,6.029,13.2993,4.60010,2470.437,2021-9-19T11:26:07Z
2021-09-19T09:27:49Z,42.805,6.029,13.2990,4.60014,2470.413,2021-9-19T11:29:10Z
2021-09-19T09:30:52Z,42.805,6.029,13.2996,4.60014,2470.437,2021-9-19T11:32:14Z
2021-09-19T09:33:55Z,42.805,6.029,13.2993,4.60014,2470.413,2021-9-19T11:35:17Z
2021-09-19T09:36:59Z,42.805,6.029,13.2993,4.60018,2470.413,2021-9-19T11:38:20Z
2021-09-19T09:40:02Z,42.805,6.029,13.2996,4.60013,2470.413,2021-9-19T11:41:23Z
2021-09-19T09:43:05Z,42.805,6.029,13.2996,4.60011,2470.399,2021-9-19T11:44:26Z
2021-09-19T09:46:08Z,42.805,6.029,13.2998,4.60014,2470.437,2021-9-19T11:47:29Z
2021-09-19T09:49:11Z,42.805,6.029,13.2994,4.60015,2470.404,2021-9-19T11:50:32Z
2021-09-19T09:52:14Z,42.805,6.029,13.2993,4.60013,2470.39,2021-9-19T11:53:36Z
2021-09-19T09:55:17Z,42.805,6.029,13.2993,4.60011,2470.45,2021-9-19T11:56:39Z
2021-09-19T09:58:20Z,42.805,6.029,13.2996,4.60012,2470.38,2021-9-19T11:59:42Z
2021-09-19T10:01:24Z,42.805,6.029,13.2996,4.60013,2470.39,2021-9-19T12:02:45Z
2021-09-19T10:04:27Z,42.805,6.029,13.2995,4.60019,2470.39,2021-9-19T12:05:48Z
2021-09-19T10:07:30Z,42.805,6.029,13.2995,4.60014,2470.413,2021-9-19T12:08:51Z
2021-09-19T10:10:33Z,42.805,6.029,13.2996,4.60014,2470.366,2021-9-19T12:11:54Z
2021-09-19T10:13:36Z,42.805,6.029,13.2993,4.60012,2470.366,2021-9-19T12:14:57Z
2021-09-19T10:16:39Z,42.805,6.029,13.2994,4.60012,2470.38,2021-9-19T12:18:01Z
2021-09-19T10:19:42Z,42.805,6.029,13.2992,4.60016,2470.343,2021-9-19T12:21:04Z
2021-09-19T10:22:45Z,42.805,6.029,13.2996,4.60016,2470.404,2021-9-19T12:24:07Z
2021-09-19T10:25:49Z,42.805,6.029,13.2993,4.60011,2470.38,2021-9-19T12:27:10Z
2021-09-19T10:28:52Z,42.805,6.029,13.2996,4.60016,2470.404,2021-9-19T12:30:13Z
2021-09-19T10:31:55Z,42.805,6.029,13.2991,4.60023,2470.39,2021-9-19T12:33:16Z
2021-09-19T10:34:58Z,42.805,6.029,13.2993,4.60011,2470.366,2021-9-19T12:36:19Z
2021-09-19T10:38:01Z,42.805,6.029,13.2992,4.60013,2470.38,2021-9-19T12:39:22Z
2021-09-19T10:41:04Z,42.805,6.029,13.2996,4.60015,2470.366,2021-9-19T12:42:26Z
2021-09-19T10:44:07Z,42.805,6.029,13.2994,4.60016,2470.404,2021-9-19T12:45:29Z
2021-09-19T10:47:11Z,42.805,6.029,13.2992,4.60015,2470.366,2021-9-19T12:48:32Z
2021-09-19T10:50:14Z,42.805,6.029,13.2992,4.60012,2470.366,2021-9-19T12:51:35Z
2021-09-19T10:53:17Z,42.805,6.029,13.2998,4.60014,2470.366,2021-9-19T12:54:38Z
2021-09-19T10:56:20Z,42.805,6.029,13.2998,4.60019,2470.357,2021-9-19T12:57:41Z
2021-09-19T10:59:23Z,42.805,6.029,13.2996,4.60018,2470.32,2021-9-19T13:00:44Z
2021-09-19T11:02:26Z,42.805,6.029,13.2994,4.60014,2470.343,2021-9-19T13:03:48Z
2021-09-19T11:05:29Z,42.805,6.029,13.2998,4.60016,2470.343,2021-9-19T13:06:51Z
2021-09-19T11:08:32Z,42.805,6.029,13.2993,4.60012,2470.404,2021-9-19T13:09:54Z
2021-09-19T11:11:36Z,42.805,6.029,13.2992,4.60014,2470.343,2021-9-19T13:12:57Z
2021-09-19T11:14:39Z,42.805,6.029,13.2990,4.60009,2470.357,2021-9-19T13:16:00Z
2021-09-19T11:17:42Z,42.805,6.029,13.2991,4.60014,2470.343,2021-9-19T13:19:03Z
2021-09-19T11:20:45Z,42.805,6.029,13.2997,4.60017,2470.343,2021-9-19T13:22:06Z
2021-09-19T11:23:48Z,42.805,6.029,13.2997,4.60015,2470.32,2021-9-19T13:25:09Z
2021-09-19T11:26:51Z,42.805,6.029,13.2993,4.60016,2470.343,2021-9-19T13:28:13Z
2021-09-19T11:29:54Z,42.805,6.029,13.2997,4.60016,2470.343,2021-9-19T13:31:16Z
2021-09-19T11:32:57Z,42.805,6.029,13.2993,4.60014,2470.306,2021-9-19T13:34:19Z
2021-09-19T11:36:01Z,42.805,6.029,13.2999,4.60024,2470.343,2021-9-19T13:37:22Z
2021-09-19T11:39:04Z,42.805,6.029,13.2998,4.60014,2470.366,2021-9-19T13:40:25Z
2021-09-19T11:42:07Z,42.805,6.029,13.2995,4.60015,2470.343,2021-9-19T13:43:28Z
2021-09-19T11:45:10Z,42.805,6.029,13.2994,4.60014,2470.366,2021-9-19T13:46:31Z
2021-09-19T11:48:13Z,42.805,6.029,13.2993,4.60014,2470.343,2021-9-19T13:49:34Z
2021-09-19T11:51:16Z,42.805,6.029,13.2993,4.60016,2470.366,2021-9-19T13:52:38Z
2021-09-19T11:54:19Z,42.805,6.029,13.2992,4.60016,2470.357,2021-9-19T13:55:41Z
2021-09-19T11:57:22Z,42.805,6.029,13.2991,4.60011,2470.343,2021-9-19T13:58:44Z
2021-09-19T12:00:26Z,42.805,6.029,13.2994,4.60014,2470.357,2021-9-19T14:01:47Z
2021-09-19T12:03:29Z,42.805,6.029,13.2999,4.60021,2470.32,2021-9-19T14:04:50Z
2021-09-19T12:06:32Z,42.805,6.029,13.2996,4.60015,2470.343,2021-9-19T14:07:53Z
2021-09-19T12:09:35Z,42.805,6.029,13.2995,4.60011,2470.343,2021-9-19T14:10:56Z
2021-09-19T12:12:38Z,42.805,6.029,13.2994,4.60009,2470.343,2021-9-19T14:13:59Z
2021-09-19T12:15:41Z,42.805,6.029,13.2995,4.60018,2470.357,2021-9-19T14:17:03Z
2021-09-19T12:18:44Z,42.805,6.029,13.2992,4.60020,2470.357,2021-9-19T14:20:06Z
2021-09-19T12:21:47Z,42.805,6.029,13.2994,4.60015,2470.32,2021-9-19T14:23:09Z
2021-09-19T12:24:51Z,42.805,6.029,13.2994,4.60023,2470.343,2021-9-19T14:26:12Z
2021-09-19T12:27:54Z,42.805,6.029,13.2997,4.60016,2470.357,2021-9-19T14:29:15Z
2021-09-19T12:30:57Z,42.805,6.029,13.2992,4.60026,2470.334,2021-9-19T14:32:18Z
2021-09-19T12:34:00Z,42.805,6.029,13.2991,4.60018,2470.343,2021-9-19T14:35:21Z
2021-09-19T12:37:03Z,42.805,6.029,13.2993,4.60014,2470.334,2021-9-19T14:38:24Z
2021-09-19T12:40:06Z,42.805,6.029,13.2992,4.60011,2470.32,2021-9-19T14:41:28Z
2021-09-19T12:43:09Z,42.805,6.029,13.2990,4.60014,2470.32,2021-9-19T14:44:31Z
2021-09-19T12:46:12Z,42.805,6.029,13.2998,4.60016,2470.343,2021-9-19T14:47:34Z
2021-09-19T12:49:16Z,42.805,6.029,13.2996,4.60011,2470.343,2021-9-19T14:50:37Z
2021-09-19T12:52:19Z,42.805,6.029,13.2993,4.60017,2470.297,2021-9-19T14:53:40Z
2021-09-19T12:55:22Z,42.805,6.029,13.2991,4.60011,2470.366,2021-9-19T14:56:43Z
2021-09-19T12:58:25Z,42.805,6.029,13.2993,4.60016,2470.357,2021-9-19T14:59:46Z
2021-09-19T13:01:28Z,42.805,6.029,13.2994,4.60013,2470.297,2021-9-19T15:02:49Z
2021-09-19T13:04:31Z,42.805,6.029,13.2993,4.60014,2470.334,2021-9-19T15:05:53Z
2021-09-19T13:07:34Z,42.805,6.029,13.2996,4.60011,2470.32,2021-9-19T15:08:56Z
2021-09-19T13:10:37Z,42.805,6.029,13.2992,4.60010,2470.32,2021-9-19T15:11:59Z
2021-09-19T13:13:41Z,42.805,6.029,13.2992,4.60009,2470.31,2021-9-19T15:15:02Z
2021-09-19T13:16:44Z,42.805,6.029,13.2995,4.60010,2470.32,2021-9-19T15:18:05Z
2021-09-19T13:19:47Z,42.805,6.029,13.2995,4.60011,2470.357,2021-9-19T15:21:08Z
2021-09-19T13:22:50Z,42.805,6.029,13.2995,4.60016,2470.297,2021-9-19T15:24:11Z
2021-09-19T13:25:53Z,42.805,6.029,13.2992,4.60013,2470.31,2021-9-19T15:27:15Z
2021-09-19T13:28:56Z,42.805,6.029,13.2993,4.60024,2470.357,2021-9-19T15:30:18Z
2021-09-19T13:31:59Z,42.805,6.029,13.3006,4.60028,2470.357,2021-9-19T15:33:21Z
2021-09-19T13:35:03Z,42.805,6.029,13.2994,4.60021,2470.32,2021-9-19T15:36:24Z
2021-09-19T13:38:06Z,42.805,6.029,13.2995,4.60014,2470.32,2021-9-19T15:39:27Z
2021-09-19T13:41:09Z,42.805,6.029,13.3005,4.60017,2470.32,2021-9-19T15:42:30Z
2021-09-19T13:44:12Z,42.805,6.029,13.2994,4.60015,2470.32,2021-9-19T15:45:33Z
2021-09-19T13:47:15Z,42.805,6.029,13.2992,4.60015,2470.32,2021-9-19T15:48:36Z
2021-09-19T13:50:18Z,42.805,6.029,13.2993,4.60025,2470.334,2021-9-19T15:51:40Z
2021-09-19T13:53:21Z,42.805,6.029,13.2995,4.60016,2470.334,2021-9-19T15:54:43Z
2021-09-19T13:56:24Z,42.805,6.029,13.2999,4.60017,2470.357,2021-9-19T15:57:46Z
2021-09-19T13:59:28Z,42.805,6.029,13.2997,4.60015,2470.357,2021-9-19T16:00:49Z
2021-09-19T14:02:31Z,42.805,6.029,13.2998,4.60021,2470.343,2021-9-19T16:03:52Z
2021-09-19T14:05:34Z,42.805,6.029,13.2998,4.60019,2470.357,2021-9-19T16:06:55Z
2021-09-19T14:08:37Z,42.805,6.029,13.2993,4.60024,2470.366,2021-9-19T16:09:58Z
2021-09-19T14:11:40Z,42.805,6.029,13.2991,4.60016,2470.366,2021-9-19T16:13:01Z
2021-09-19T14:14:43Z,42.805,6.029,13.3002,4.60016,2470.343,2021-9-19T16:16:05Z
2021-09-19T14:17:46Z,42.805,6.029,13.2993,4.60016,2470.38,2021-9-19T16:19:08Z
2021-09-19T14:20:49Z,42.805,6.029,13.2996,4.60011,2470.357,2021-9-19T16:22:11Z
2021-09-19T14:23:53Z,42.805,6.029,13.2991,4.60014,2470.366,2021-9-19T16:25:14Z
2021-09-19T14:26:56Z,42.805,6.029,13.2997,4.60029,2470.38,2021-9-19T16:28:17Z
2021-09-19T14:29:59Z,42.805,6.029,13.2993,4.60014,2470.353,2021-9-19T16:31:20Z
2021-09-19T14:33:02Z,42.805,6.029,13.2998,4.60024,2470.39,2021-9-19T16:34:23Z
2021-09-19T14:36:05Z,42.805,6.029,13.2998,4.60031,2470.343,2021-9-19T16:37:26Z
2021-09-19T14:39:08Z,42.805,6.029,13.2994,4.60016,2470.404,2021-9-19T16:40:30Z
2021-09-19T14:42:11Z,42.805,6.029,13.2998,4.60016,2470.38,2021-9-19T16:43:33Z
2021-09-19T14:45:14Z,42.805,6.029,13.2998,4.60024,2470.39,2021-9-19T16:46:36Z
2021-09-19T14:48:18Z,42.805,6.029,13.2994,4.60019,2470.39,2021-9-19T16:49:39Z
2021-09-19T14:51:21Z,42.805,6.029,13.2998,4.60016,2470.404,2021-9-19T16:52:42Z
2021-09-19T14:54:24Z,42.805,6.029,13.3001,4.60017,2470.39,2021-9-19T16:55:45Z
2021-09-19T14:57:27Z,42.805,6.029,13.2997,4.60012,2470.39,2021-9-19T16:58:48Z
2021-09-19T15:00:30Z,42.805,6.029,13.2992,4.60014,2470.39,2021-9-19T17:01:51Z
2021-09-19T15:03:33Z,42.805,6.029,13.2999,4.60029,2470.427,2021-9-19T17:04:55Z
2021-09-19T15:06:36Z,42.805,6.029,13.2992,4.60021,2470.427,2021-9-19T17:07:58Z
2021-09-19T15:09:39Z,42.805,6.029,13.2996,4.60016,2470.45,2021-9-19T17:11:01Z
2021-09-19T15:12:43Z,42.805,6.029,13.2994,4.60019,2470.413,2021-9-19T17:14:04Z